Stündliche Wetter La Aurora

Heute, 11 Mai, Dienstag

Zeit Temperatur Niederschläge Wind Luftdruck Luftfeuchtigkeit
00:00 +21°C° 0.1 mm 0 m/S 641 mmHg 66%
01:00 +21°C° 0.1 mm 0 m/S 640 mmHg 67%
02:00 +22°C° 0.1 mm 1 m/S 640 mmHg 69%
03:00 +22°C° 0 mm 1 m/S 640 mmHg 71%
04:00 +22°C° 0 mm 1 m/S 640 mmHg 72%
05:00 +21°C° 0 mm 1 m/S 640 mmHg 73%
06:00 +23°C° 0.1 mm 1 m/S 641 mmHg 68%
07:00 +24°C° 0.1 mm 1 m/S 641 mmHg 62%
08:00 +23°C° 0.1 mm 0 m/S 642 mmHg 57%
09:00 +27°C° 0 mm 1 m/S 642 mmHg 50%
10:00 +29°C° 0 mm 1 m/S 642 mmHg 44%
11:00 +31°C° 0 mm 1 m/S 642 mmHg 38%
12:00 +31°C° 0 mm 1 m/S 642 mmHg 35%
13:00 +32°C° 0 mm 1 m/S 641 mmHg 32%
14:00 +33°C° 0 mm 1 m/S 641 mmHg 29%
15:00 +31°C° 0.1 mm 2 m/S 640 mmHg 36%
16:00 +29°C° 0.1 mm 2 m/S 640 mmHg 43%
17:00 +27°C° 0.1 mm 2 m/S 639 mmHg 49%
18:00 +26°C° 0.1 mm 2 m/S 640 mmHg 53%
19:00 +25°C° 0.1 mm 2 m/S 640 mmHg 56%
20:00 +25°C° 0.1 mm 2 m/S 641 mmHg 59%
21:00 +24°C° 0.3 mm 2 m/S 641 mmHg 62%
22:00 +24°C° 0.3 mm 2 m/S 641 mmHg 64%
23:00 +24°C° 0.3 mm 1 m/S 641 mmHg 66%

Morgen, 12 Mai, Mittwoch

Zeit Temperatur Niederschläge Wind Luftdruck Luftfeuchtigkeit
00:00 +23°C° 0.1 mm 1 m/S 641 mmHg 67%
01:00 +23°C° 0.1 mm 1 m/S 641 mmHg 67%
02:00 +23°C° 0.1 mm 1 m/S 640 mmHg 68%
03:00 +22°C° 0 mm 1 m/S 640 mmHg 69%
04:00 +22°C° 0 mm 1 m/S 641 mmHg 71%
05:00 +21°C° 0 mm 1 m/S 641 mmHg 72%
06:00 +23°C° 0 mm 1 m/S 641 mmHg 66%
07:00 +24°C° 0 mm 1 m/S 642 mmHg 59%
08:00 +25°C° 0 mm 1 m/S 643 mmHg 53%
09:00 +27°C° 0 mm 1 m/S 643 mmHg 47%
10:00 +28°C° 0 mm 2 m/S 643 mmHg 41%
11:00 +29°C° 0 mm 2 m/S 643 mmHg 35%
12:00 +30°C° 0 mm 2 m/S 643 mmHg 33%
13:00 +31°C° 0 mm 2 m/S 642 mmHg 31%
14:00 +31°C° 0 mm 2 m/S 642 mmHg 29%
15:00 +31°C° 0 mm 2 m/S 642 mmHg 29%
16:00 +31°C° 0 mm 2 m/S 641 mmHg 29%
17:00 +31°C° 0 mm 2 m/S 641 mmHg 29%
18:00 +29°C° 0 mm 2 m/S 641 mmHg 35%
19:00 +28°C° 0 mm 2 m/S 641 mmHg 41%
20:00 +26°C° 0 mm 1 m/S 641 mmHg 47%
21:00 +26°C° 0 mm 1 m/S 642 mmHg 51%
22:00 +25°C° 0 mm 1 m/S 642 mmHg 55%
23:00 +24°C° 0 mm 1 m/S 642 mmHg 58%

übermorgen, 13 Mai, Donnerstag

Zeit Temperatur Niederschläge Wind Luftdruck Luftfeuchtigkeit
00:00 +24°C° 0.1 mm 1 m/S 642 mmHg 61%
01:00 +23°C° 0.1 mm 1 m/S 641 mmHg 64%
02:00 +23°C° 0.1 mm 1 m/S 641 mmHg 67%
03:00 +22°C° 0.2 mm 1 m/S 641 mmHg 68%
04:00 +22°C° 0.2 mm 1 m/S 641 mmHg 68%
05:00 +22°C° 0.2 mm 1 m/S 642 mmHg 69%
06:00 +23°C° 0 mm 1 m/S 642 mmHg 64%
07:00 +24°C° 0 mm 2 m/S 643 mmHg 59%
08:00 +25°C° 0 mm 2 m/S 643 mmHg 54%
09:00 +27°C° 0 mm 2 m/S 644 mmHg 48%
10:00 +29°C° 0 mm 2 m/S 644 mmHg 41%
11:00 +31°C° 0 mm 2 m/S 644 mmHg 34%
12:00 +31°C° 0 mm 1 m/S 643 mmHg 33%
13:00 +32°C° 0 mm 1 m/S 642 mmHg 31%
14:00 +32°C° 0 mm 1 m/S 642 mmHg 29%
15:00 +31°C° 0 mm 1 m/S 641 mmHg 32%
16:00 +30°C° 0 mm 1 m/S 641 mmHg 36%
17:00 +29°C° 0 mm 2 m/S 640 mmHg 40%
18:00 +28°C° 0.1 mm 2 m/S 641 mmHg 44%
19:00 +27°C° 0.1 mm 2 m/S 641 mmHg 47%
20:00 +26°C° 0.1 mm 2 m/S 642 mmHg 51%
21:00 +25°C° 0.5 mm 2 m/S 642 mmHg 58%
22:00 +24°C° 0.5 mm 3 m/S 643 mmHg 64%
23:00 +21°C° 0.5 mm 3 m/S 643 mmHg 71%

14 Mai, Freitag

Zeit Temperatur Niederschläge Wind Luftdruck Luftfeuchtigkeit
00:00 +21°C° 0.2 mm 2 m/S 643 mmHg 72%
01:00 +21°C° 0.2 mm 2 m/S 642 mmHg 73%
02:00 +21°C° 0.2 mm 1 m/S 642 mmHg 74%
03:00 +21°C° 0 mm 1 m/S 642 mmHg 73%
04:00 +21°C° 0 mm 1 m/S 642 mmHg 73%
05:00 +20°C° 0 mm 1 m/S 642 mmHg 73%
06:00 +22°C° 0 mm 1 m/S 642 mmHg 65%
07:00 +23°C° 0 mm 2 m/S 643 mmHg 58%
08:00 +25°C° 0 mm 2 m/S 644 mmHg 51%
09:00 +27°C° 0 mm 1 m/S 644 mmHg 46%
10:00 +28°C° 0 mm 1 m/S 644 mmHg 41%
11:00 +30°C° 0 mm 1 m/S 644 mmHg 36%
12:00 +31°C° 0 mm 1 m/S 643 mmHg 33%
13:00 +32°C° 0 mm 1 m/S 643 mmHg 30%
14:00 +33°C° 0 mm 1 m/S 642 mmHg 28%
15:00 +33°C° 0 mm 1 m/S 642 mmHg 28%
16:00 +32°C° 0 mm 1 m/S 641 mmHg 28%
17:00 +32°C° 0 mm 1 m/S 641 mmHg 28%
18:00 +31°C° 0 mm 1 m/S 641 mmHg 32%
19:00 +30°C° 0 mm 1 m/S 641 mmHg 36%
20:00 +28°C° 0 mm 1 m/S 641 mmHg 39%
21:00 +27°C° 0 mm 1 m/S 641 mmHg 44%
22:00 +27°C° 0 mm 1 m/S 641 mmHg 48%
23:00 +26°C° 0 mm 1 m/S 641 mmHg 53%

15 Mai, Samstag

Zeit Temperatur Niederschläge Wind Luftdruck Luftfeuchtigkeit
00:00 +25°C° 0.3 mm 1 m/S 641 mmHg 56%
01:00 +25°C° 0.3 mm 1 m/S 641 mmHg 59%
02:00 +24°C° 0.3 mm 1 m/S 641 mmHg 62%
03:00 +24°C° 0.4 mm 1 m/S 641 mmHg 64%
04:00 +24°C° 0.4 mm 1 m/S 641 mmHg 65%
05:00 +23°C° 0.4 mm 1 m/S 641 mmHg 67%
06:00 +25°C° 0.3 mm 1 m/S 642 mmHg 61%
07:00 +26°C° 0.3 mm 1 m/S 643 mmHg 56%
08:00 +27°C° 0.3 mm 1 m/S 643 mmHg 50%
09:00 +29°C° 0 mm 1 m/S 643 mmHg 44%
10:00 +30°C° 0 mm 1 m/S 643 mmHg 38%
11:00 +32°C° 0 mm 1 m/S 643 mmHg 32%
12:00 +32°C° 0 mm 1 m/S 643 mmHg 29%
13:00 +34°C° 0 mm 2 m/S 642 mmHg 26%
14:00 +35°C° 0 mm 2 m/S 642 mmHg 23%
15:00 +35°C° 0 mm 2 m/S 641 mmHg 22%
16:00 +34°C° 0 mm 3 m/S 641 mmHg 22%
17:00 +34°C° 0 mm 3 m/S 640 mmHg 22%
18:00 +31°C° 0 mm 3 m/S 640 mmHg 29%
19:00 +30°C° 0 mm 3 m/S 641 mmHg 36%
20:00 +28°C° 0 mm 3 m/S 641 mmHg 43%
21:00 +27°C° 0 mm 3 m/S 641 mmHg 46%
22:00 +26°C° 0 mm 3 m/S 641 mmHg 50%
23:00 +25°C° 0 mm 3 m/S 641 mmHg 53%

16 Mai, Sonntag

Zeit Temperatur Niederschläge Wind Luftdruck Luftfeuchtigkeit
00:00 +25°C° 0.1 mm 2 m/S 641 mmHg 55%
01:00 +24°C° 0.1 mm 2 m/S 641 mmHg 58%
02:00 +23°C° 0.1 mm 1 m/S 641 mmHg 60%
03:00 +22°C° 0 mm 1 m/S 641 mmHg 62%
04:00 +22°C° 0 mm 1 m/S 641 mmHg 65%
05:00 +21°C° 0 mm 1 m/S 641 mmHg 67%
06:00 +23°C° 0 mm 1 m/S 641 mmHg 60%
07:00 +25°C° 0 mm 1 m/S 642 mmHg 53%
08:00 +26°C° 0 mm 1 m/S 643 mmHg 46%
09:00 +28°C° 0 mm 1 m/S 643 mmHg 38%
10:00 +30°C° 0 mm 1 m/S 643 mmHg 30%
11:00 +32°C° 0 mm 2 m/S 643 mmHg 23%
12:00 +34°C° 0 mm 2 m/S 643 mmHg 20%
13:00 +35°C° 0 mm 2 m/S 642 mmHg 18%
14:00 +35°C° 0 mm 2 m/S 642 mmHg 16%
15:00 +35°C° 0 mm 2 m/S 641 mmHg 16%
16:00 +35°C° 0 mm 2 m/S 641 mmHg 16%
17:00 +34°C° 0 mm 2 m/S 641 mmHg 16%
18:00 +32°C° 0 mm 2 m/S 641 mmHg 21%
19:00 +30°C° 0 mm 2 m/S 641 mmHg 27%
20:00 +28°C° 0 mm 2 m/S 641 mmHg 32%
21:00 +27°C° 0 mm 2 m/S 641 mmHg 36%
22:00 +26°C° 0 mm 2 m/S 641 mmHg 40%
23:00 +25°C° 0 mm 2 m/S 641 mmHg 43%
Mehr zeigen

Wir brauchen deine Erlaubnis

Meteoprog und unser Service Anbieter werden persönliche Daten aufbewahren, so wie Cookies, Geräte Bezeichnung oder ähnliche Technologien von deinem Gerät und Prozess, so wie Persönliche Daten Inhalte und Werbungen, genauso wie social Media und den Verkehr zu analysieren.

  • Aufbewahrung und/oder Zugang zu deiner Geräte Informationen.

    Cookies, Geräte Bezeichnung oder andere Informationen, können aufbewahrt oder Zugang zu deinem Gerät erhalten, für den Grund, der oben angegeben wird.

  • Personalisierte Werbung und Inhalte, Messungen, Einblick in das Publikum und Produkt Entwicklung.

    Werbungen und Inhalte können personalisiert werden, basierend auf ein Profil. Mehr Daten können besser personalisierte Werbungen und Inhalte hinzufügen. Werbung und Inhalte können gezeigt und gemessen werden. Einblicke über das Publikum, welche die Werbung gesehen haben und den Inhalt, können abgeleitet werden. So wie Daten können genutzt werden, um es zu verbessern oder die Benutzer Erfahrung zu verbessern das System und die Software.

Wenn du “Ich stimme zu” klickst, erlaubst du uns, die Cookies zu benutzen die Geräte Bezeichnung, den Web oder ähnliche Technologien zu benutzen. Deine Settings, können in deinem Gerät bei deinem Browser geändert werden.

Für den bestimmten Zweck, berechtigten Interessen beruhen darauf, mehr als auf den Inhalt. Du kannst mehr darüber in unseren Privaten und Cookie Politik lesen.